DECAYED

FENGYUN 1C DEB, 30319 (Decayed)

Orbit data source: Space-Track

FENGYUN 1C DEB, 30319 was space debris in SSO originally from a launch on Mon, 10 May 1999 UTC launched from the Taiyaun Space Center, China (TSC). Fengyun 1C debris stems from the Chinese weather satellite Fengyun-1C, which was intentionally destroyed by a Chinese anti-satellite missile in 2007. This event dramatically increased the amount of space debris, with thousands of trackable fragments posing hazards to satellites and human spaceflight. The Fengyun 1C debris cloud has become a focal point in discussions about space sustainability and the need for international regulations to prevent the creation of new debris.

Not visible in the next 10 days
Identifier
30319, 1999-025AAG
Orbit
Decayed
Country
Flag of CNCN / PRC
Related business
Manufacturer
Unknown
Mission
Decayed spacecraft
Bus & Motor
Unknown
Mass
Unknown
Launch date (UTC)
1999-05-10 (27 years ago)
Launch vehicle
Unknown
Launch site
Taiyaun Space Center, China (TSC)
Object type
Payload
Rocket body
Debris
Shape & HBR
Unknown shape, 0.1 m
Radar Cross Section
Medium (>0.1 m² and <1 m²)

Expand to show TLE details & history
Last TLE update: 1 year ago

TLE from 1 year ago
0 FENGYUN 1C DEB
1 30319U 99025AAG 25022.03782530  .11055135  00000-0  50552-1 0  9999
2 30319  98.2361  61.6419 0004218   3.4121 356.7171 15.78999752933197
Epoch: 2025-01-22T00:54Z
TLE epoch observation values (Epoch: 2025-01-22T00:54:28.105Z)
Latitude
-0.00009°
Longitude
-73.61064°
Altitude
333.591 km
Speed
7.71 km/s
True Right ascension
04h 06m 34s
True Declination
0° 00' 00"
Sunlit
Object was in full shadow at epoch
Visualization orbit readout
Latitude
Unknown
Longitude
Unknown
Altitude
Unknown
Speed
Unknown
Apparent Right ascension
Unknown
Apparent Declination
Unknown
Sunlit
N/A
Visualization observer readout
Local Sidereal Time
14:15:20
Azimuth
Unknown
Elevation
Unknown
Doppler factor
Unknown
Orbital elements
Apogee altitude
333.029 km
Perigee altitude
327.37 km
Semi-major axis
6,708.337 km
Eccentricity
0.00042
Inclination
98.2361°
RAAN
61.6419°
Arg. of periapsis
3.4121°
True anomaly
356.71433°
Mean anomaly
356.7171°
Eccentric anomaly
356.71572°
Mean motion
3.95022 °/min
Orbital period
91.13 mins
BSTAR
0.050552
Loading maneuver chart data...
Computing Atmospheric mass density...

Documentation

Showing up to 5 results
|